Tracking 17558 objects as of 9-February-2016
HD Live streaming from Space Station
objects crossing your sky now

ESSA 1 (OT-3)

Track ESSA 1 (OT-3) now!
10-day predictions
ESSA 1 (OT-3) is classified as:


NORAD ID: 1982
Int'l Code: 1966-008A
Perigee: 686.1 km
Apogee: 800.7 km
Inclination: 97.9 °
Period: 99.5 minutes
Semi major axis: 7114 km
RCS: 0.7257 m2 (medium)
Launch date: February 3, 1966
Source: United States (US)
Launch site: AIR FORCE EASTERN TEST RANGE (AFETR)
Your satellite tracking list
Your tracking list is empty





NASA's NSSDC Master Catalog

Two Line Element Set (TLE):
1 01982U 66008A   16039.65998492  .00000110  00000-0  40652-4 0  9994
2 01982  97.8890 282.4544 0080571 239.0898 12.2356 14.46752691631769
Source of the keplerian elements: AFSPC

N2YO: 1048